Weather History for Grenoble, France

Change the Weather History Date:

Tuesday, November 26, 2013

  Actual Average Record
Temperature  
Mean Temperature 32 °F -  
Max Temperature 37 °F 42 °F 62 °F (2006)
Min Temperature 26 °F 31 °F 19 °F (2005)
Degree Days  
Heating Degree Days 34    
Moisture  
Dew Point 24 °F    
Average Humidity 72    
Maximum Humidity 86    
Minimum Humidity 60    
Precipitation  
Precipitation 0.00 in - - ()
Sea Level Pressure  
Sea Level Pressure 30.31 in    
Wind  
Wind Speed 7 mph ()    
Max Wind Speed 14 mph    
Max Gust Speed -    
Visibility 6.2 miles    
Events      
Averages and records for this station are not official NWS values.
T = Trace of Precipitation, MM = Missing Value Source: Averaged Metar Reports

Daily Weather History Graph

Daily Weather History Graph

Search for Another Location

Airport:

Trip Planner

Search our weather history database for the weather conditions in past years. The results will help you decide how hot, cold, wet, or windy it might be!

Date:

Astronomy

Nov. 26, 2013 Rise Set
Actual Time 7:51 AM CET 4:59 PM CET
Civil Twilight 7:18 AM CET 5:32 PM CET
Nautical Twilight 6:42 AM CET 6:09 PM CET
Astronomical Twilight 6:06 AM CET 6:44 PM CET
Moon 12:20 AM CET (11/26) 1:16 PM CET (11/26)
Length of Visible Light 10h 13m
Length of Day
9h 07m
Last Quarter, 44% of the Moon is Illuminated
Nov 26
Last Quarter
Dec 3
New
Dec 9
First Quarter
Dec 17
Full
Dec 25
Last Quarter

Hourly Weather History & Observations

Time (CET) Temp. Windchill Dew Point Humidity Pressure Visibility Wind Dir Wind Speed Gust Speed Precip Events Conditions
12:00 AM 30.2 °F 20.8 °F 23.0 °F 75% 30.30 in 6.2 mi NNE 11.5 mph - N/A   Unknown
12:30 AM 30.2 °F 22.6 °F 21.2 °F 69% 30.30 in 6.2 mi NNE 8.1 mph - N/A   Unknown
1:00 AM 30.2 °F 23.4 °F 21.2 °F 69% 30.30 in 6.2 mi NNE 6.9 mph - N/A   Unknown
1:30 AM 30.2 °F 22.6 °F 21.2 °F 69% 30.30 in 6.2 mi North 8.1 mph - N/A   Unknown
2:00 AM 30.2 °F 22.6 °F 21.2 °F 69% 30.30 in 6.2 mi NNE 8.1 mph - N/A   Unknown
2:30 AM 28.4 °F 20.4 °F 21.2 °F 74% 30.30 in 6.2 mi North 8.1 mph - N/A   Unknown
3:00 AM 30.2 °F 22.6 °F 21.2 °F 69% 30.30 in 6.2 mi North 8.1 mph - N/A   Unknown
3:30 AM 28.4 °F 20.4 °F 21.2 °F 74% 30.30 in 6.2 mi North 8.1 mph - N/A   Unknown
4:00 AM 28.4 °F 21.2 °F 23.0 °F 80% 30.27 in 6.2 mi North 6.9 mph - N/A   Unknown
4:30 AM 28.4 °F 23.3 °F 23.0 °F 80% 30.27 in 6.2 mi NNE 4.6 mph - N/A   Unknown
5:00 AM 28.4 °F - 23.0 °F 80% 30.27 in 6.2 mi Variable 1.2 mph - N/A   Partly Cloudy
5:30 AM 28.4 °F - 23.0 °F 80% 30.27 in 6.2 mi Variable 2.3 mph - N/A   Overcast
6:00 AM 28.4 °F 24.6 °F 24.8 °F 86% 30.30 in 6.2 mi Variable 3.5 mph - N/A   Overcast
6:30 AM 28.4 °F 24.6 °F 24.8 °F 86% 30.27 in 6.2 mi ENE 3.5 mph - N/A   Overcast
7:00 AM 26.6 °F 22.6 °F 23.0 °F 86% 30.30 in 6.2 mi Variable 3.5 mph - N/A   Mostly Cloudy
7:30 AM 30.2 °F 24.3 °F 24.8 °F 80% 30.30 in 6.2 mi NE 5.8 mph - N/A   Partly Cloudy
8:00 AM 30.2 °F 23.4 °F 24.8 °F 80% 30.27 in 6.2 mi North 6.9 mph - N/A   Partly Cloudy
8:30 AM 30.2 °F 21.3 °F 26.6 °F 86% 30.30 in 6.2 mi North 10.4 mph - N/A   Unknown
9:00 AM 30.2 °F 26.7 °F 26.6 °F 86% 30.30 in 6.2 mi Variable 3.5 mph - N/A   Scattered Clouds
9:30 AM 30.2 °F 24.3 °F 26.6 °F 86% 30.30 in 6.2 mi North 5.8 mph - N/A   Mostly Cloudy
10:00 AM 32.0 °F 24.8 °F 26.6 °F 80% 30.33 in 6.2 mi NNE 8.1 mph - N/A   Overcast
10:30 AM 33.8 °F 25.3 °F 28.4 °F 81% 30.33 in 6.2 mi North 11.5 mph - N/A   Overcast
11:00 AM 33.8 °F 24.8 °F 26.6 °F 75% 30.33 in 6.2 mi North 12.7 mph - N/A   Overcast
11:30 AM 33.8 °F 25.3 °F 28.4 °F 81% 30.33 in 6.2 mi North 11.5 mph - N/A   Overcast
12:00 PM 33.8 °F 24.8 °F 26.6 °F 75% 30.33 in 6.2 mi North 12.7 mph - N/A   Overcast
12:30 PM 35.6 °F 27.5 °F 28.4 °F 75% 30.33 in 6.2 mi North 11.5 mph - N/A   Overcast
1:00 PM 37.4 °F 31.4 °F 28.4 °F 70% 30.30 in 6.2 mi NNE 8.1 mph - N/A   Overcast
1:30 PM 37.4 °F 32.8 °F 26.6 °F 65% 30.30 in 6.2 mi Variable 5.8 mph - N/A   Overcast
2:00 PM 37.4 °F 31.4 °F 26.6 °F 65% 30.30 in 6.2 mi North 8.1 mph - N/A   Overcast
2:30 PM 37.4 °F 30.8 °F 26.6 °F 65% 30.30 in 6.2 mi North 9.2 mph - N/A   Overcast
3:00 PM 37.4 °F 28.9 °F 26.6 °F 65% 30.30 in 6.2 mi North 13.8 mph - N/A   Overcast
3:30 PM 37.4 °F 29.8 °F 26.6 °F 65% 30.30 in 6.2 mi North 11.5 mph - N/A   Overcast
4:00 PM 37.4 °F 31.4 °F 24.8 °F 60% 30.30 in 6.2 mi North 8.1 mph - N/A   Overcast
4:30 PM 35.6 °F 28.0 °F 24.8 °F 65% 30.30 in 6.2 mi North 10.4 mph - N/A   Mostly Cloudy
5:00 PM 35.6 °F 28.6 °F 24.8 °F 65% 30.30 in 6.2 mi North 9.2 mph - N/A   Mostly Cloudy
5:30 PM 35.6 °F 29.9 °F 24.8 °F 65% 30.33 in 6.2 mi North 6.9 mph - N/A   Overcast
6:00 PM 33.8 °F 27.0 °F 24.8 °F 70% 30.33 in 6.2 mi North 8.1 mph - N/A   Partly Cloudy
6:30 PM 33.8 °F 25.8 °F 23.0 °F 65% 30.33 in 6.2 mi North 10.4 mph - N/A   Unknown
7:00 PM 33.8 °F 25.8 °F 21.2 °F 60% 30.33 in 6.2 mi NNE 10.4 mph - N/A   Unknown
7:30 PM 33.8 °F 24.8 °F 21.2 °F 60% 30.33 in 6.2 mi NNE 12.7 mph - N/A   Unknown
8:00 PM 32.0 °F 24.8 °F 21.2 °F 64% 30.33 in 6.2 mi NNE 8.1 mph - N/A   Unknown
8:30 PM 32.0 °F 24.8 °F 21.2 °F 64% 30.33 in 6.2 mi NNE 8.1 mph - N/A   Unknown
9:00 PM 32.0 °F 24.2 °F 21.2 °F 64% 30.33 in 6.2 mi NNE 9.2 mph - N/A   Unknown
9:30 PM 30.2 °F 21.9 °F 21.2 °F 69% 30.33 in 6.2 mi North 9.2 mph - N/A   Unknown
10:00 PM 30.2 °F 21.3 °F 21.2 °F 69% 30.33 in 6.2 mi North 10.4 mph - N/A   Unknown
10:30 PM 30.2 °F 21.3 °F 23.0 °F 75% 30.33 in 6.2 mi North 10.4 mph - N/A   Unknown
11:00 PM 30.2 °F 24.3 °F 21.2 °F 69% 30.33 in 6.2 mi North 5.8 mph - N/A   Unknown
11:30 PM 30.2 °F 23.4 °F 21.2 °F 69% 30.33 in 6.2 mi NNE 6.9 mph - N/A   Unknown